Regional Weather Roundup
Issued by NWS

Home | Current Version | Previous Version | Text Only | Print | Product List | Glossary On
Versions: 1 2 3 4 5 6 7 8 9 10 11 12 13 14 15 16 17 18 19 20 21 22 23 24 25 26 27 28 29 30 31 32 33 34 35 36 37 38 39 40 41 42 43 44 45 46 47 48 49 50
316
ASUS44 KLIX 241105
RWRLA
LOUISIANA WEATHER ROUNDUP
NATIONAL WEATHER SERVICE NEW ORLEANS LA
600 AM CDT THU APR 24 2014

NOTE: "FAIR" INDICATES FEW OR NO CLOUDS BELOW 12,000 FEET WITH NO
      SIGNIFICANT WEATHER AND/OR OBSTRUCTIONS TO VISIBILITY.
      SKY/WX - SKY CONDITION AND SIGNIFICANT WEATHER.
      TMP - AIR TEMPERATURE.    DP   - DEWPOINT TEMPERATURE.
      RH  - RELATIVE HUMIDITY.  PRES - PRESSURE.
      HX  - HEAT INDEX.         WCI  - WIND CHILL INDEX.

*  THESE STATIONS ARE NOT NWS OR FAA STATIONS AND ARE NOT UNDER
   NWS QUALITY CONTROL.

LAZ040-048-061>063-065-066-069-241200-
SOUTHEAST LOUISIANA

CITY           SKY/WX    TMP DP  RH WIND       PRES   REMARKS
N.O. AUDUBON   NOT AVBL
N.O. INTL ARPT CLEAR     64  63  96 CALM      29.91S
N.O. LAKEFRONT CLEAR     65  63  93 SE5       29.92S FOG
N.O. DOWNTOWN* FAIR      68  63  83 S3        29.92S
SLIDELL        FOG       56  55  97 CALM      29.92R VSB 1/4
BATON ROUGE    CLEAR     62  59  90 E3        29.90R FOG
BOOTHVILLE     PTCLDY    69  65  86 S5        29.93R
BELLE CHASSE   FOG       57  55  94 CALM      29.92R VSB 1/4
BOGALUSA*      FOG       57  55  91 CALM      29.93S VSB 1/2
GALLIANO*      FOG       59  57  93 CALM      29.92R VSB 1/4
NEW ROADS*     FOG       60  59  97 CALM      29.90R VSB<1/4
GONZALES*      FOG       59  59 100 CALM      29.90R VSB 3/4
HAMMOND*       FOG       61  57  88 CALM      29.93R VSB 1
HOUMA*         FOG       61  59  94 CALM      29.91R VSB<1/4
PORT FOURCHON* SUNNY     70  66  88 S5        29.93R

$$

LAZ041-044-053-054-241200-
SOUTHWEST LOUISIANA

CITY           SKY/WX    TMP DP  RH WIND       PRES   REMARKS
LAKE CHARLES   MOCLDY    66  65  96 S5        29.87R
LAFAYETTE      FOG       61  60  97 CALM      29.89R VSB 1/4
PATTERSON        N/A     61  61 100 CALM      29.93  VSB 1/2
SALT POINT       N/A     68  66  93 CALM      29.89R
NEW IBERIA       N/A     60  59  96 SE3       29.89S VSB 1/4
CHENAULT AIRPK NOT AVBL

$$

LAZ027-028-241200-
CENTRAL LOUISIANA

CITY           SKY/WX    TMP DP  RH WIND       PRES   REMARKS
FORT POLK      FOG       64  64 100 S6        29.88R VSB 1
ALEXANDRIA INT CLOUDY    66  63  90 SW6       29.88R
ALEXANDRIA     CLOUDY    64  61  90 CALM      29.89R FOG

$$

LAZ001-002-241200-
NORTHWEST LOUISIANA

CITY           SKY/WX    TMP DP  RH WIND       PRES   REMARKS
SHREVEPORT     CLOUDY    64  61  90 CALM      29.85S
BARKSDALE AFB  CLOUDY    62  60  94 SE2       29.86S
DTN SHREVEPORT CLOUDY    63  59  87 CALM      29.86S

$$

LAZ014-016-241200-
NORTHEAST LOUISIANA

CITY           SKY/WX    TMP DP  RH WIND       PRES   REMARKS
MONROE         MOCLDY    55  51  86 CALM      29.91R
TALLULAH       MOCLDY    56  53  90 CALM      29.92R

$$




USA.gov is the U.S. government's official web portal to all federal, state and local government web resources and services.